Location: Unspecified
(0.0000°N, 0.0000°E)
Time: 01:40:52
(UTC+00:00)

RS-15 - Pass Details

Date: 11 December 2017
Orbit: 1889 x 2156 km, 64.8° (Epoch: 24 April)

Event Time Altitude Azimuth Distance (km) Brightness Sun altitude
Exits shadow 03:48:26 23° 243° (WSW) 3,350 8.9 -28.5°
Drops below altitude 10° 03:55:43 10° 200° (SSW) 4,271 9.9 -26.8°
Sets 04:00:02 0° 186° (S) 5,270 10.6 -25.9°
